Location: Drocourt
(49.0571°N, 1.7669°E)
Time: 23:08:41
(UTC+00:00)

Courier 1B - Visible Passes

Search period start: 16 April 2024 00:00
Search period end: 26 April 2024 00:00
Orbit: 962 x 1208 km, 28.3° (Epoch: 16 April)

Date Brightness Start Highest point End Pass type
(mag) Time Alt. Az. Time Alt. Az. Time Alt. Az.
16 Apr 9.6 04:25:18 10° S 04:26:44 11° S 04:28:09 10° SSE visible
19 Apr 9.5 03:36:28 10° SSW 03:38:54 12° S 03:41:19 10° SSE visible
20 Apr 9.5 02:45:10 12° S 02:45:25 12° S 02:47:39 10° SSE visible
21 Apr 9.5 03:41:46 10° SSW 03:44:32 12° S 03:47:14 10° SSE visible
22 Apr 9.4 02:50:46 13° S 02:51:02 13° S 02:54:03 10° SSE visible
23 Apr 9.7 02:00:11 11° SSE 02:00:11 11° SSE 02:00:36 10° SSE visible
23 Apr 9.5 03:47:59 10° SSW 03:50:08 11° SSW 03:52:16 10° S visible
24 Apr 9.4 02:56:32 13° S 02:56:38 13° S 02:59:36 10° SSE visible
25 Apr 9.7 02:06:04 11° SSE 02:06:04 11° SSE 02:06:31 10° SSE visible
